Estherville, IA

1:50 PM CDT on September 29, 2016 (GMT -0500)
Estherville Municipal

Weather History for KEST - May, 2014

Change the Weather History Date:

Friday, May 23, 2014

  Actual Average Record
Temperature  
Mean Temperature 63 °F 61 °F  
Max Temperature 80 °F 73 °F 93 °F (1964)
Min Temperature 45 °F 49 °F 31 °F (1963)
Degree Days  
Heating Degree Days 2 6  
Month to date heating degree days 260 202  
Since 1 July heating degree days 8543 7663  
Cooling Degree Days 0 1  
Month to date cooling degree days 7 17  
Year to date cooling degree days 7 19  
Growing Degree Days 12 (Base 50)    
Moisture  
Dew Point 41 °F    
Average Humidity 48    
Maximum Humidity 71    
Minimum Humidity 25    
Precipitation  
Precipitation 0.00 in 0.11 in 1.38 in (2004)
Month to date precipitation 1.34 2.83  
Sea Level Pressure  
Sea Level Pressure 30.17 in    
Wind  
Wind Speed 8 mph (SE)    
Max Wind Speed 15 mph    
Max Gust Speed 19 mph    
Visibility 10 miles    
Events      
T = Trace of Precipitation, MM = Missing Value Source: NWS Daily Summary

Daily Weather History Graph

Daily Weather History Graph

Search for Another Location

Airport or City:

Trip Planner

Search our weather history database for the weather conditions in past years. The results will help you decide how hot, cold, wet, or windy it might be!

Date:

Astronomy

May. 23, 2014 Rise Set
Actual Time 5:47 AM CDT 8:44 PM CDT
Civil Twilight 5:13 AM CDT 9:18 PM CDT
Nautical Twilight 4:30 AM CDT 10:02 PM CDT
Astronomical Twilight 3:39 AM CDT 10:53 PM CDT
Moon 2:51 AM CDT (5/23) 3:29 PM CDT (5/23)
Length of Visible Light 16h 05m
Length of Day
14h 57m
Waning Crescent, 27% of the Moon is Illuminated
May 23
Waning Crescent
May 28
New
Jun 5
First Quarter
Jun 12
Full
Jun 19
Last Quarter

Hourly Weather History & Observations

Time (CDT) Temp. Windchill Dew Point Humidity Pressure Visibility Wind Dir Wind Speed Gust Speed Precip Events Conditions
12:52 AM 52.0 °F - 36.0 °F 54% 30.20 in 10.0 mi East 3.5 mph - N/A   Clear
1:52 AM 52.0 °F - 37.0 °F 57% 30.20 in 10.0 mi East 4.6 mph - N/A   Clear
5:52 AM 45.0 °F 42.6 °F 35.1 °F 68% 30.20 in 10.0 mi ESE 4.6 mph - N/A   Clear
6:52 AM 50.0 °F - 41.0 °F 71% 30.21 in 10.0 mi SSE 3.5 mph - N/A   Clear
7:52 AM 59.0 °F - 45.0 °F 60% 30.21 in 10.0 mi SE 10.4 mph - N/A   Clear
8:52 AM 64.0 °F - 45.0 °F 50% 30.22 in 10.0 mi SE 11.5 mph - N/A   Clear
10:52 AM 69.1 °F - 43.0 °F 39% 30.22 in 10.0 mi SE 10.4 mph 17.3 mph N/A   Clear
11:52 AM 71.1 °F - 43.0 °F 36% 30.22 in 10.0 mi ESE 8.1 mph - N/A   Clear
12:52 PM 75.0 °F - 44.1 °F 33% 30.21 in 10.0 mi SE 13.8 mph - N/A   Clear
1:52 PM 75.0 °F - 41.0 °F 29% 30.18 in 10.0 mi Variable 3.5 mph - N/A   Clear
2:52 PM 77.0 °F - 44.1 °F 31% 30.16 in 10.0 mi ESE 11.5 mph - N/A   Clear
3:52 PM 79.0 °F - 43.0 °F 28% 30.15 in 10.0 mi SSE 10.4 mph - N/A   Clear
4:52 PM 78.1 °F - 39.9 °F 25% 30.13 in 10.0 mi Variable 3.5 mph 17.3 mph N/A   Clear
5:52 PM 78.1 °F - 42.1 °F 28% 30.12 in 10.0 mi South 6.9 mph - N/A   Clear
6:52 PM 77.0 °F - 41.0 °F 28% 30.09 in 10.0 mi SE 9.2 mph - N/A   Clear
7:52 PM 75.0 °F - 39.9 °F 28% 30.09 in 10.0 mi ESE 10.4 mph - N/A   Clear
9:52 PM 64.0 °F - 39.9 °F 41% 30.11 in 10.0 mi ESE 10.4 mph - N/A   Clear
10:52 PM 66.0 °F - 39.9 °F 38% 30.12 in 10.0 mi SE 12.7 mph - N/A   Clear
11:52 PM 61.0 °F - 39.9 °F 46% 30.12 in 10.0 mi SE 11.5 mph - N/A   Clear